Weather History for Roswell, NM

Change the Weather History Date:

Sunday, November 18, 2012

  Actual Average Record
Temperature  
Mean Temperature 51 °F 48 °F  
Max Temperature 60 °F 63 °F 83 °F (1942)
Min Temperature 42 °F 33 °F 10 °F (1903)
Degree Days  
Heating Degree Days 14 17  
Month to date heating degree days 181 241  
Since 1 July heating degree days 308 415  
Cooling Degree Days 0 0  
Month to date cooling degree days 0 0  
Year to date cooling degree days 2356 1788  
Growing Degree Days 1 (Base 50)    
Moisture  
Dew Point 47 °F    
Average Humidity 86    
Maximum Humidity 100    
Minimum Humidity 71    
Precipitation  
Precipitation 0.05 in 0.02 in 1.10 in (1906)
Month to date precipitation 0.05 0.39  
Year to date precipitation 6.10 12.08  
Sea Level Pressure  
Sea Level Pressure 30.08 in    
Wind  
Wind Speed 5 mph (South)    
Max Wind Speed 13 mph    
Max Gust Speed 16 mph    
Visibility 6 miles    
Events Fog , Rain    
T = Trace of Precipitation, MM = Missing Value Source: NWS Daily Summary

Daily Weather History Graph

Daily Weather History Graph

Search for Another Location

Airport:

Trip Planner

Search our weather history database for the weather conditions in past years. The results will help you decide how hot, cold, wet, or windy it might be!

Date:

Astronomy

Nov. 18, 2012 Rise Set
Actual Time 6:32 AM MST 4:54 PM MST
Civil Twilight 6:06 AM MST 5:20 PM MST
Nautical Twilight 5:35 AM MST 5:50 PM MST
Astronomical Twilight 5:06 AM MST 6:20 PM MST
Moon 11:04 AM MST (11/18) 10:11 PM MST (11/18)
Length of Visible Light 11h 14m
Length of Day
10h 21m
Waxing Crescent, 31% of the Moon is Illuminated
Nov 18
Waxing Crescent
Nov 20
First Quarter
Nov 28
Full
Dec 6
Last Quarter
Dec 13
New

Hourly Weather History & Observations

Time (MST) Temp. Windchill Dew Point Humidity Pressure Visibility Wind Dir Wind Speed Gust Speed Precip Events Conditions
12:51 AM 48.9 °F - 42.1 °F 77% 30.00 in 10.0 mi South 6.9 mph - N/A   Clear
1:51 AM 48.9 °F - 42.1 °F 77% 29.99 in 10.0 mi SSW 6.9 mph - N/A   Clear
2:51 AM 50.0 °F - 42.1 °F 74% 29.99 in 10.0 mi SSE 3.5 mph - N/A   Clear
3:51 AM 48.9 °F - 42.1 °F 77% 29.99 in 10.0 mi Calm Calm - N/A   Partly Cloudy
4:51 AM 48.9 °F - 41.0 °F 74% 29.99 in 10.0 mi Calm Calm - N/A   Mostly Cloudy
5:51 AM 48.0 °F - 41.0 °F 77% 30.01 in 10.0 mi South 3.5 mph - N/A   Clear
6:51 AM 48.9 °F - 41.0 °F 74% 30.03 in 10.0 mi NNW 3.5 mph - N/A   Mostly Cloudy
7:51 AM 48.9 °F - 43.0 °F 80% 30.05 in 7.0 mi North 4.6 mph - 0.00 in Rain Light Rain
8:51 AM 50.0 °F - 46.0 °F 86% 30.08 in 5.0 mi Calm Calm - 0.02 in Rain Light Rain
9:51 AM 51.1 °F - 48.0 °F 89% 30.08 in 6.0 mi ESE 3.5 mph - 0.02 in Rain Light Rain
10:51 AM 53.1 °F - 51.1 °F 93% 30.09 in 7.0 mi South 8.1 mph - 0.01 in Rain Light Rain
11:51 AM 55.0 °F - 52.0 °F 89% 30.05 in 10.0 mi South 5.8 mph - 0.00 in   Overcast
12:51 PM 55.9 °F - 52.0 °F 87% 30.03 in 10.0 mi SSE 6.9 mph - N/A   Overcast
1:51 PM 55.9 °F - 53.1 °F 90% 30.02 in 9.0 mi SSE 5.8 mph - N/A   Overcast
2:51 PM 59.0 °F - 54.0 °F 83% 30.00 in 10.0 mi South 10.4 mph - N/A   Scattered Clouds
3:51 PM 60.1 °F - 53.1 °F 78% 30.01 in 10.0 mi SSE 8.1 mph - N/A   Scattered Clouds
4:51 PM 57.0 °F - 53.1 °F 87% 30.03 in 10.0 mi South 4.6 mph - N/A   Partly Cloudy
5:51 PM 55.0 °F - 52.0 °F 89% 30.04 in 10.0 mi SSE 5.8 mph - N/A   Clear
6:51 PM 52.0 °F - 51.1 °F 97% 30.07 in 10.0 mi SW 3.5 mph - N/A   Clear
7:22 PM 51.8 °F - 50.0 °F 94% 30.14 in 7.0 mi SSW 4.6 mph - N/A   Scattered Clouds
7:30 PM 51.8 °F - 51.8 °F 100% 30.15 in 2.0 mi South 6.9 mph - N/A   Mostly Cloudy
7:37 PM 51.8 °F - 51.8 °F 100% 30.14 in 5.0 mi SSW 5.8 mph - N/A   Mostly Cloudy
7:44 PM 51.8 °F - 51.8 °F 100% 30.15 in 0.2 mi South 4.6 mph - N/A   Overcast
7:51 PM 52.0 °F - 52.0 °F 100% 30.07 in 0.2 mi South 6.9 mph - N/A Fog Fog
7:59 PM 51.8 °F - 51.8 °F 100% 30.15 in 0.2 mi South 4.6 mph - N/A Fog Fog
8:51 PM 50.0 °F - 50.0 °F 100% 30.09 in 0.2 mi South 3.5 mph - N/A Fog Fog
9:35 PM 46.4 °F 42.9 °F 46.4 °F 100% 30.16 in 0.5 mi SSE 6.9 mph - N/A Fog Fog
9:44 PM 46.4 °F 44.3 °F 46.4 °F 100% 30.16 in 1.2 mi SSW 4.6 mph - N/A   Scattered Clouds
9:47 PM 46.4 °F 45.2 °F 46.4 °F 100% 30.16 in 3.0 mi SSW 3.5 mph - N/A   Partly Cloudy
9:51 PM 46.0 °F 44.8 °F 45.0 °F 96% 30.09 in 4.0 mi SSW 3.5 mph - N/A   Partly Cloudy
10:48 PM 44.6 °F 42.2 °F 42.8 °F 93% 30.17 in 1.5 mi East 4.6 mph - N/A   Partly Cloudy
10:51 PM 45.0 °F - 44.1 °F 97% 30.10 in 1.2 mi Calm Calm - N/A   Partly Cloudy
11:02 PM 44.6 °F 43.1 °F 44.6 °F 100% 30.16 in 3.0 mi ESE 3.5 mph - N/A   Partly Cloudy
11:05 PM 44.6 °F 41.4 °F 42.8 °F 93% 30.16 in 1.5 mi ESE 5.8 mph - N/A   Partly Cloudy
11:08 PM 42.8 °F 38.6 °F 42.8 °F 100% 30.17 in 0.8 mi ESE 6.9 mph - N/A   Mist
11:23 PM 44.6 °F - 44.6 °F 100% 30.17 in 1.2 mi Calm Calm - N/A   Scattered Clouds
11:29 PM 42.8 °F - 42.8 °F 100% 30.17 in 3.0 mi Calm Calm - N/A   Scattered Clouds
11:51 PM 42.1 °F 39.2 °F 42.1 °F 100% 30.09 in 2.5 mi South 4.6 mph - N/A   Clear